This is the latest recevied weather packets stored in our database for station/object SP9WPN-12. If no packets are shown the sender has not sent any weather packets the latest 10 day(s).
| Time | Temp. | Humidity | Pressure | Rain* | Wind** | Luminosity | Snow |
|---|---|---|---|---|---|---|---|
| 1777529164 | 6.67° C | 53% | 1033.2 hPa | - | - | - | - |
| 1777528565 | 6.67° C | 55% | 1033.2 hPa | - | - | - | - |
| 1777527967 | 6.11° C | 58% | 1033.2 hPa | - | - | - | - |
| 1777527369 | 6.11° C | 61% | 1033.3 hPa | - | - | - | - |
| 1777526770 | 5° C | 66% | 1033.5 hPa | - | - | - | - |
| 1777526172 | 3.89° C | 73% | 1033.6 hPa | - | - | - | - |
| 1777525574 | 2.78° C | 81% | 1033.8 hPa | - | - | - | - |
| 1777524976 | 2.78° C | 80% | 1033.7 hPa | - | - | - | - |
| 1777524378 | 0° C | 86% | 1034 hPa | - | - | - | - |
| 1777523781 | -1.67° C | 94% | 1034.2 hPa | - | - | - | - |
| 1777523184 | -2.78° C | 94% | 1034.2 hPa | - | - | - | - |
| 1777522586 | -3.33° C | 95% | 1034.2 hPa | - | - | - | - |
| 1777521988 | -3.33° C | 96% | 1034.1 hPa | - | - | - | - |
| 1777521390 | -3.33° C | 97% | 1034.1 hPa | - | - | - | - |
| 1777520792 | -3.89° C | 97% | 1034.2 hPa | - | - | - | - |
| 1777520194 | -3.89° C | 98% | 1034.3 hPa | - | - | - | - |
| 1777519596 | -3.89° C | 97% | 1034.2 hPa | - | - | - | - |
| 1777518996 | -3.89° C | 98% | 1034.1 hPa | - | - | - | - |
| 1777518398 | -3.89° C | 98% | 1034.1 hPa | - | - | - | - |
| 1777517801 | -3.89° C | 96% | 1034.2 hPa | - | - | - | - |
| 1777517203 | -3.89° C | 96% | 1034.1 hPa | - | - | - | - |
| 1777516605 | -3.89° C | 95% | 1034.1 hPa | - | - | - | - |
| 1777516003 | -3.89° C | 97% | 1034.1 hPa | - | - | - | - |
| 1777515405 | -3.89° C | 95% | 1034.1 hPa | - | - | - | - |
| 1777514808 | -2.78° C | 97% | 1033.9 hPa | - | - | - | - |
* Rain since midnight (hover to see other rain measurements)
** Current wind speed in m/s (hover to see current wind gust speed)